| time (UTC) | temp F | wind direction | speed knots | gust knots | rain 1hr in | rain 24hr in | rain mn in | humidity % | barometer mb |
| 20260506103119 | 57 | 10 | 0.0 | 0.0 | 0.00 | 0.53 | 0.53 | 99 | 1008.3 |
| 20260506102618 | 57 | 349 | 0.0 | 0.0 | 0.00 | 0.53 | 0.53 | 99 | 1007.8 |
| 20260506102115 | 57 | 7 | 0.9 | 0.9 | 0.00 | 0.53 | 0.53 | 99 | 1008.1 |
| 20260506101611 | 57 | 350 | 0.0 | 0.9 | 0.00 | 0.53 | 0.53 | 99 | 1008.1 |
| 20260506101108 | 57 | 3 | 0.0 | 0.9 | 0.00 | 0.53 | 0.53 | 99 | 1008.2 |
| 20260506100607 | 57 | 28 | 0.9 | 0.9 | 0.00 | 0.53 | 0.53 | 99 | 1008.4 |
| 20260506100104 | 57 | 20 | 0.0 | 0.9 | 0.00 | 0.53 | 0.53 | 99 | 1008.5 |
| 20260506095603 | 57 | 18 | 0.0 | 0.0 | 0.00 | 0.53 | 0.53 | 99 | 1008.2 |
| 20260506095059 | 57 | 18 | 0.0 | 0.0 | 0.00 | 0.53 | 0.53 | 99 | 1008.1 |
| 20260506094557 | 57 | 16 | 0.0 | 0.0 | 0.00 | 0.53 | 0.53 | 99 | 1008.2 |
| 20260506094054 | 57 | 13 | 0.0 | 0.0 | 0.00 | 0.53 | 0.53 | 99 | 1008.3 |
| 20260506093552 | 57 | 6 | 0.0 | 0.0 | 0.00 | 0.53 | 0.53 | 99 | 1008.3 |
| 20260506093049 | 57 | 2 | 0.0 | 0.9 | 0.00 | 0.53 | 0.53 | 99 | 1008.4 |
| 20260506092548 | 57 | 17 | 0.0 | 0.0 | 0.00 | 0.53 | 0.53 | 99 | 1008.2 |
| 20260506092044 | 57 | 16 | 0.0 | 0.0 | 0.00 | 0.53 | 0.53 | 99 | 1008.2 |
| 20260506091542 | 57 | 7 | 0.0 | 0.0 | 0.00 | 0.53 | 0.53 | 99 | 1008.4 |
| 20260506091039 | 57 | 202 | 0.0 | 1.7 | 0.05 | 0.53 | 0.53 | 99 | 1008.4 |
| 20260506090537 | 57 | 24 | 0.0 | 0.0 | 0.12 | 0.53 | 0.53 | 99 | 1008.2 |
| 20260506090033 | 57 | 29 | 0.0 | 0.9 | 0.14 | 0.52 | 0.52 | 99 | 1008.4 |
| 20260506085530 | 57 | 11 | 0.0 | 0.0 | 0.12 | 0.51 | 0.51 | 99 | 1008.6 |
| 20260506085026 | 57 | 38 | 0.0 | 0.9 | 0.24 | 0.50 | 0.50 | 99 | 1008.5 |
| 20260506084524 | 57 | 3 | 0.0 | 0.0 | 0.28 | 0.48 | 0.48 | 99 | 1008.5 |
| 20260506084020 | 57 | 28 | 0.0 | 0.0 | 0.19 | 0.45 | 0.45 | 99 | 1008.7 |
| 20260506083517 | 57 | 26 | 0.0 | 0.0 | 0.07 | 0.43 | 0.43 | 99 | 1008.3 |
| 20260506083014 | 57 | 25 | 0.0 | 0.9 | 0.05 | 0.42 | 0.42 | 99 | 1008.5 |
| 20260506082511 | 57 | 17 | 0.0 | 0.0 | 0.12 | 0.41 | 0.41 | 99 | 1008.3 |
| 20260506082007 | 57 | 7 | 0.0 | 0.9 | 0.31 | 0.41 | 0.41 | 99 | 1008.4 |
| 20260506081505 | 58 | 7 | 0.0 | 1.7 | 0.31 | 0.39 | 0.39 | 99 | 1008.4 |
| 20260506081003 | 58 | 13 | 0.0 | 0.0 | 0.24 | 0.36 | 0.36 | 99 | 1008.4 |
| 20260506080459 | 58 | 14 | 0.0 | 0.0 | 0.31 | 0.34 | 0.34 | 99 | 1008.7 |
| 20260506073443 | 58 | 16 | 0.0 | 0.0 | 0.24 | 0.25 | 0.25 | 99 | 1008.6 |
| 20260506072940 | 58 | 19 | 0.0 | 0.9 | 0.19 | 0.23 | 0.23 | 99 | 1008.6 |
| 20260506072437 | 58 | 36 | 0.9 | 0.9 | 0.12 | 0.21 | 0.21 | 99 | 1008.6 |
| 20260506071935 | 58 | 17 | 0.0 | 0.0 | 0.12 | 0.20 | 0.20 | 99 | 1008.6 |
| 20260506071433 | 58 | 16 | 0.0 | 0.0 | 0.12 | 0.19 | 0.19 | 99 | 1008.9 |
| 20260506070930 | 58 | 18 | 0.0 | 0.0 | 0.12 | 0.18 | 0.18 | 99 | 1008.6 |
| 20260506070426 | 58 | 20 | 0.0 | 0.0 | 0.12 | 0.17 | 0.17 | 99 | 1008.7 |
| 20260506062405 | 59 | 356 | 0.0 | 0.0 | 0.05 | 0.05 | 0.05 | 99 | 1008.7 |
| 20260506061900 | 59 | 356 | 0.0 | 0.0 | 0.05 | 0.05 | 0.05 | 99 | 1009.0 |
| 20260506061356 | 59 | 5 | 0.0 | 0.0 | 0.00 | 0.04 | 0.04 | 99 | 1008.5 |
| 20260506060855 | 59 | 5 | 0.0 | 0.0 | 0.00 | 0.04 | 0.04 | 99 | 1008.4 |
| 20260506060352 | 59 | 5 | 0.0 | 0.0 | 0.00 | 0.04 | 0.04 | 99 | 1008.5 |
| 20260506051325 | 59 | 332 | 0.0 | 0.9 | 0.05 | 0.03 | 0.03 | 99 | 1009.3 |
| 20260506050822 | 59 | 352 | 0.0 | 0.0 | 0.05 | 0.03 | 0.03 | 99 | 1009.2 |
| 20260506050320 | 59 | 352 | 0.0 | 0.0 | 0.07 | 0.02 | 0.02 | 99 | 1009.3 |
| 20260506044809 | 59 | 34 | 0.0 | 0.9 | 0.00 | 0.01 | 0.01 | 99 | 1009.5 |
| 20260506044307 | 59 | 343 | 0.0 | 0.0 | 0.00 | 0.01 | 0.01 | 99 | 1009.6 |
| 20260506043804 | 59 | 359 | 0.0 | 0.0 | 0.00 | 0.01 | 0.01 | 99 | 1009.8 |
| 20260506043301 | 59 | 359 | 0.0 | 0.0 | 0.00 | 0.01 | 0.01 | 99 | 1009.8 |
| 20260506042801 | 59 | 359 | 0.0 | 0.0 | 0.00 | 0.01 | 0.01 | 99 | 1009.8 |
| 20260506042259 | 59 | 350 | 0.0 | 0.0 | 0.00 | 0.01 | 0.01 | 99 | 1009.9 |
| 20260506041757 | 59 | 350 | 0.0 | 0.0 | 0.07 | 0.01 | 0.01 | 99 | 1010.5 |
| 20260506041253 | 59 | 348 | 0.0 | 0.0 | 0.00 | 0.00 | 0.00 | 99 | 1010.4 |
| 20260506040751 | 59 | 346 | 0.0 | 0.0 | 0.00 | 0.00 | 0.00 | 99 | 1010.3 |
| 20260506040248 | 59 | 345 | 0.0 | 0.0 | 0.05 | 0.00 | 0.00 | 99 | 1010.7 |
| 20260506035745 | 59 | 355 | 0.0 | 0.9 | 0.05 | 0.04 | 0.04 | 99 | 1010.3 |
| 20260506035241 | 59 | 355 | 0.0 | 0.0 | 0.07 | 0.03 | 0.03 | 99 | 1010.3 |
| 20260506034738 | 59 | 355 | 0.0 | 0.0 | 0.07 | 0.03 | 0.03 | 99 | 1010.5 |
| 20260506034236 | 59 | 355 | 0.0 | 0.0 | 0.00 | 0.02 | 0.02 | 99 | 1010.2 |
| 20260506033733 | 59 | 355 | 0.0 | 0.0 | 0.00 | 0.02 | 0.02 | 99 | 1010.1 |
| 20260506033230 | 59 | 355 | 0.0 | 0.0 | 0.00 | 0.02 | 0.02 | 99 | 1010.0 |
| 20260506032727 | 59 | 355 | 0.0 | 0.0 | 0.00 | 0.02 | 0.02 | 99 | 1010.0 |
| 20260506032224 | 59 | 355 | 0.0 | 0.0 | 0.00 | 0.02 | 0.02 | 99 | 1010.0 |
| 20260506031720 | 59 | 355 | 0.0 | 0.0 | 0.00 | 0.02 | 0.02 | 99 | 1009.9 |
| 20260506031218 | 59 | 355 | 0.0 | 0.0 | 0.00 | 0.02 | 0.02 | 99 | 1010.1 |
| 20260506030716 | 59 | 355 | 0.0 | 0.0 | 0.00 | 0.02 | 0.02 | 99 | 1010.1 |
| 20260506030213 | 59 | 355 | 0.0 | 0.0 | 0.00 | 0.02 | 0.02 | 99 | 1009.8 |
| 20260506025710 | 60 | 355 | 0.0 | 0.0 | 0.00 | 0.02 | 0.02 | 99 | 1010.0 |
| 20260506025206 | 60 | 355 | 0.0 | 0.0 | 0.00 | 0.02 | 0.02 | 99 | 1009.9 |
| 20260506024703 | 60 | 355 | 0.0 | 0.0 | 0.00 | 0.02 | 0.02 | 98 | 1009.8 |
| 20260506024159 | 60 | 17 | 0.0 | 0.0 | 0.00 | 0.02 | 0.02 | 98 | 1010.1 |
| 20260506023656 | 60 | 358 | 0.0 | 0.0 | 0.00 | 0.02 | 0.02 | 98 | 1010.1 |
| 20260506023154 | 60 | 3 | 0.0 | 0.0 | 0.00 | 0.02 | 0.02 | 97 | 1010.1 |
| 20260506022650 | 60 | 359 | 0.0 | 0.0 | 0.05 | 0.02 | 0.02 | 97 | 1010.0 |
| 20260506022148 | 60 | 3 | 0.0 | 0.0 | 0.05 | 0.02 | 0.02 | 97 | 1010.0 |
| 20260506021646 | 60 | 353 | 0.0 | 0.0 | 0.00 | 0.01 | 0.01 | 96 | 1010.1 |
| 20260506021142 | 60 | 0 | 0.0 | 0.0 | 0.00 | 0.01 | 0.01 | 95 | 1009.9 |
| 20260506020639 | 60 | 1 | 0.0 | 0.0 | 0.00 | 0.01 | 0.01 | 94 | 1009.8 |
| 20260506020137 | 61 | 0 | 0.0 | 0.0 | 0.00 | 0.01 | 0.01 | 93 | 1009.8 |
| 20260506015634 | 61 | 0 | 0.0 | 0.0 | 0.07 | 0.01 | 0.01 | 92 | 1009.9 |
| 20260506015131 | 61 | 0 | 0.0 | 0.0 | 0.00 | 0.00 | 0.00 | 90 | 1010.0 |
| 20260506014629 | 62 | 2 | 0.0 | 0.0 | 0.00 | 0.00 | 0.00 | 87 | 1010.1 |
| 20260506014124 | 62 | 3 | 0.0 | 0.0 | 0.00 | 0.00 | 0.00 | 86 | 1010.0 |
| 20260506013622 | 63 | 358 | 0.0 | 0.0 | 0.00 | 0.00 | 0.00 | 82 | 1010.1 |
| 20260506013119 | 63 | 358 | 0.0 | 0.0 | 0.00 | 0.00 | 0.00 | 81 | 1010.4 |
| 20260506012615 | 64 | 358 | 0.0 | 0.0 | 0.00 | 0.00 | 0.00 | 79 | 1010.0 |
| 20260506012112 | 65 | 358 | 0.0 | 0.0 | 0.00 | 0.00 | 0.00 | 76 | 1010.1 |
| 20260506011609 | 66 | 358 | 0.0 | 0.0 | 0.00 | 0.00 | 0.00 | 74 | 1009.9 |
| 20260506011105 | 66 | 358 | 0.0 | 0.0 | 0.00 | 0.00 | 0.00 | 72 | 1010.1 |
| 20260506010559 | 66 | 355 | 0.0 | 0.0 | 0.00 | 0.00 | 0.00 | 69 | 1010.0 |
| 20260506010055 | 67 | 352 | 0.0 | 0.0 | 0.00 | 0.00 | 0.00 | 68 | 1009.9 |
| 20260506005553 | 67 | 354 | 0.0 | 0.0 | 0.00 | 0.00 | 0.00 | 68 | 1009.8 |
| 20260506005048 | 68 | 359 | 0.0 | 0.0 | 0.00 | 0.00 | 0.00 | 64 | 1010.0 |
| 20260506004546 | 68 | 16 | 0.0 | 0.9 | 0.00 | 0.00 | 0.00 | 61 | 1010.2 |
| 20260506004043 | 68 | 358 | 0.0 | 0.9 | 0.00 | 0.00 | 0.00 | 64 | 1010.0 |
| 20260506003539 | 68 | 348 | 0.0 | 0.9 | 0.00 | 0.00 | 0.00 | 60 | 1010.1 |
| 20260506003035 | 69 | 34 | 0.0 | 1.7 | 0.00 | 0.00 | 0.00 | 60 | 1010.1 |
| 20260506002526 | 69 | 10 | 0.0 | 0.9 | 0.00 | 0.00 | 0.00 | 58 | 1010.1 |
| 20260506002021 | 70 | 355 | 0.0 | 2.6 | 0.00 | 0.00 | 0.00 | 58 | 1009.9 |
| 20260506001518 | 70 | 32 | 0.0 | 0.9 | 0.00 | 0.00 | 0.00 | 57 | 1010.0 |
| 20260506001015 | 70 | 356 | 0.0 | 2.6 | 0.00 | 0.00 | 0.00 | 56 | 1010.1 |
| 20260506000513 | 70 | 354 | 2.6 | 2.6 | 0.00 | 0.00 | 0.00 | 56 | 1010.2 |
| 20260506000010 | 70 | 313 | 1.7 | 1.7 | 0.00 | 0.00 | 0.00 | 56 | 1010.0 |
| 20260505235508 | 71 | 354 | 1.7 | 2.6 | 0.00 | 0.00 | 0.00 | 55 | 1009.9 |
| 20260505235004 | 71 | 56 | 1.7 | 2.6 | 0.00 | 0.00 | 0.00 | 55 | 1010.4 |
| 20260505234502 | 71 | 15 | 1.7 | 2.6 | 0.00 | 0.00 | 0.00 | 55 | 1010.3 |
| 20260505233958 | 71 | 3 | 0.9 | 3.5 | 0.00 | 0.00 | 0.00 | 54 | 1010.3 |
| 20260505233456 | 71 | 298 | 1.7 | 2.6 | 0.00 | 0.00 | 0.00 | 56 | 1010.1 |
| 20260505232953 | 71 | 92 | 1.7 | 3.5 | 0.00 | 0.00 | 0.00 | 55 | 1010.3 |
| 20260505232451 | 71 | 25 | 0.9 | 0.9 | 0.00 | 0.00 | 0.00 | 55 | 1010.1 |
| 20260505231948 | 71 | 1 | 1.7 | 1.7 | 0.00 | 0.00 | 0.00 | 56 | 1010.0 |
| 20260505231446 | 71 | 2 | 0.9 | 1.7 | 0.00 | 0.00 | 0.00 | 56 | 1010.4 |
| 20260505230944 | 71 | 24 | 0.0 | 0.0 | 0.00 | 0.00 | 0.00 | 56 | 1010.0 |
| 20260505230441 | 71 | 355 | 2.6 | 2.6 | 0.00 | 0.00 | 0.00 | 55 | 1010.4 |
| 20260505225937 | 71 | 354 | 0.9 | 1.7 | 0.00 | 0.00 | 0.00 | 57 | 1010.3 |
| 20260505225434 | 71 | 355 | 0.0 | 0.9 | 0.00 | 0.00 | 0.00 | 56 | 1010.3 |
| 20260505224930 | 71 | 17 | 0.0 | 0.9 | 0.00 | 0.00 | 0.00 | 58 | 1010.1 |
| 20260505224427 | 71 | 44 | 0.0 | 0.9 | 0.00 | 0.00 | 0.00 | 57 | 1010.4 |
| 20260505223924 | 71 | 67 | 0.0 | 0.9 | 0.00 | 0.00 | 0.00 | 56 | 1010.6 |
| 20260505223421 | 71 | 35 | 1.7 | 2.6 | 0.00 | 0.00 | 0.00 | 56 | 1010.3 |
| 20260505222917 | 72 | 27 | 0.9 | 0.9 | 0.00 | 0.00 | 0.00 | 56 | 1010.3 |
| 20260505222413 | 72 | 23 | 0.9 | 0.9 | 0.00 | 0.00 | 0.00 | 56 | 1010.3 |
| 20260505221910 | 72 | 18 | 0.0 | 0.9 | 0.00 | 0.00 | 0.00 | 57 | 1010.1 |
| 20260505221407 | 72 | 13 | 0.0 | 0.0 | 0.00 | 0.00 | 0.00 | 57 | 1010.3 |
| 20260505220904 | 72 | 319 | 0.9 | 1.7 | 0.00 | 0.00 | 0.00 | 55 | 1010.3 |
| 20260505220401 | 72 | 318 | 0.9 | 0.9 | 0.00 | 0.00 | 0.00 | 55 | 1009.9 |
| 20260505215859 | 72 | 44 | 0.9 | 1.7 | 0.00 | 0.00 | 0.00 | 55 | 1010.3 |
| 20260505215356 | 73 | 61 | 0.0 | 0.9 | 0.00 | 0.00 | 0.00 | 56 | 1010.3 |
| 20260505214854 | 72 | 350 | 0.0 | 1.7 | 0.00 | 0.00 | 0.00 | 55 | 1010.2 |
| 20260505214351 | 72 | 7 | 0.0 | 1.7 | 0.00 | 0.00 | 0.00 | 54 | 1010.1 |
| 20260505213848 | 73 | 13 | 0.9 | 1.7 | 0.00 | 0.00 | 0.00 | 54 | 1010.1 |
| 20260505213346 | 73 | 325 | 4.3 | 6.1 | 0.00 | 0.00 | 0.00 | 54 | 1010.2 |
| 20260505212842 | 73 | 10 | 1.7 | 5.2 | 0.00 | 0.00 | 0.00 | 55 | 1010.2 |
| 20260505212339 | 73 | 11 | 0.0 | 0.9 | 0.00 | 0.00 | 0.00 | 54 | 1010.1 |
| 20260505211835 | 73 | 43 | 0.9 | 1.7 | 0.00 | 0.00 | 0.00 | 55 | 1010.3 |
| 20260505211333 | 73 | 23 | 0.0 | 2.6 | 0.00 | 0.00 | 0.00 | 55 | 1010.2 |
| 20260505210830 | 73 | 6 | 0.9 | 5.2 | 0.00 | 0.00 | 0.00 | 54 | 1010.4 |
| 20260505210326 | 73 | 21 | 1.7 | 5.2 | 0.00 | 0.00 | 0.00 | 53 | 1010.4 |
| 20260505205823 | 73 | 14 | 0.0 | 3.5 | 0.00 | 0.00 | 0.00 | 53 | 1010.7 |
| 20260505205322 | 73 | 331 | 0.9 | 7.0 | 0.00 | 0.00 | 0.00 | 53 | 1010.5 |
| 20260505204818 | 73 | 56 | 1.7 | 2.6 | 0.00 | 0.00 | 0.00 | 54 | 1010.5 |
| 20260505204316 | 73 | 53 | 0.0 | 5.2 | 0.00 | 0.00 | 0.00 | 54 | 1010.7 |
| 20260505203813 | 73 | 317 | 2.6 | 3.5 | 0.00 | 0.00 | 0.00 | 53 | 1010.6 |
| 20260505203310 | 73 | 65 | 1.7 | 1.7 | 0.00 | 0.00 | 0.00 | 54 | 1010.6 |
| 20260505202806 | 73 | 59 | 0.9 | 1.7 | 0.00 | 0.00 | 0.00 | 54 | 1010.5 |
| 20260505202305 | 73 | 30 | 0.0 | 5.2 | 0.00 | 0.00 | 0.00 | 53 | 1010.7 |
| 20260505201759 | 74 | 9 | 1.7 | 7.0 | 0.00 | 0.00 | 0.00 | 52 | 1010.8 |
| 20260505201256 | 74 | 352 | 0.0 | 0.9 | 0.00 | 0.00 | 0.00 | 54 | 1010.8 |
| 20260505200754 | 74 | 147 | 1.7 | 3.5 | 0.00 | 0.00 | 0.00 | 52 | 1010.8 |
| 20260505200251 | 74 | 24 | 1.7 | 5.2 | 0.00 | 0.00 | 0.00 | 51 | 1010.9 |
| 20260505195746 | 74 | 34 | 3.5 | 5.2 | 0.00 | 0.00 | 0.00 | 51 | 1011.1 |
| 20260505195244 | 74 | 356 | 0.9 | 3.5 | 0.00 | 0.00 | 0.00 | 55 | 1011.0 |
| 20260505194741 | 74 | 31 | 5.2 | 7.8 | 0.00 | 0.00 | 0.00 | 51 | 1011.2 |
| 20260505194238 | 74 | 98 | 2.6 | 5.2 | 0.00 | 0.00 | 0.00 | 51 | 1011.2 |
| 20260505193728 | 74 | 30 | 1.7 | 2.6 | 0.00 | 0.00 | 0.00 | 51 | 1011.0 |
| 20260505193226 | 74 | 106 | 1.7 | 7.0 | 0.00 | 0.00 | 0.00 | 51 | 1011.3 |
| 20260505192724 | 74 | 35 | 0.0 | 3.5 | 0.00 | 0.00 | 0.00 | 52 | 1011.3 |
| 20260505192221 | 74 | 80 | 2.6 | 9.6 | 0.00 | 0.00 | 0.00 | 52 | 1011.3 |
| 20260505191719 | 74 | 3 | 0.9 | 14.8 | 0.00 | 0.00 | 0.00 | 52 | 1011.4 |
| 20260505191217 | 74 | 286 | 0.9 | 3.5 | 0.00 | 0.00 | 0.00 | 53 | 1011.6 |
| 20260505190713 | 74 | 107 | 0.0 | 5.2 | 0.00 | 0.00 | 0.00 | 53 | 1011.3 |
| 20260505190213 | 74 | 3 | 1.7 | 1.7 | 0.00 | 0.00 | 0.00 | 52 | 1011.6 |
| 20260505185710 | 73 | 356 | 0.9 | 7.8 | 0.00 | 0.00 | 0.00 | 53 | 1011.6 |
| 20260505185206 | 74 | 358 | 1.7 | 2.6 | 0.00 | 0.00 | 0.00 | 53 | 1011.7 |
| 20260505184702 | 74 | 252 | 1.7 | 2.6 | 0.00 | 0.00 | 0.00 | 53 | 1011.8 |
| 20260505184200 | 74 | 39 | 0.0 | 3.5 | 0.00 | 0.00 | 0.00 | 53 | 1012.0 |
| 20260505183656 | 75 | 98 | 1.7 | 7.0 | 0.00 | 0.00 | 0.00 | 54 | 1011.8 |
| 20260505183154 | 74 | 36 | 0.0 | 7.8 | 0.00 | 0.00 | 0.00 | 53 | 1011.8 |
| 20260505182650 | 75 | 8 | 3.5 | 11.3 | 0.00 | 0.00 | 0.00 | 51 | 1011.9 |
| 20260505182147 | 75 | 23 | 5.2 | 7.8 | 0.00 | 0.00 | 0.00 | 52 | 1011.8 |
| 20260505181643 | 74 | 339 | 1.7 | 8.7 | 0.00 | 0.00 | 0.00 | 53 | 1012.3 |
| 20260505181141 | 73 | 31 | 0.9 | 3.5 | 0.00 | 0.00 | 0.00 | 54 | 1011.9 |
| 20260505180637 | 73 | 9 | 5.2 | 7.0 | 0.00 | 0.00 | 0.00 | 53 | 1012.0 |
| 20260505180135 | 73 | 45 | 3.5 | 7.0 | 0.00 | 0.00 | 0.00 | 53 | 1012.1 |
| 20260505175631 | 73 | 88 | 2.6 | 8.7 | 0.00 | 0.00 | 0.00 | 53 | 1012.2 |
| 20260505175127 | 73 | 345 | 5.2 | 6.1 | 0.00 | 0.00 | 0.00 | 53 | 1012.2 |
| 20260505174624 | 73 | 86 | 3.5 | 6.1 | 0.00 | 0.00 | 0.00 | 54 | 1012.1 |
| 20260505174120 | 73 | 253 | 2.6 | 6.1 | 0.00 | 0.00 | 0.00 | 52 | 1012.1 |
| 20260505173617 | 73 | 92 | 1.7 | 5.2 | 0.00 | 0.00 | 0.00 | 54 | 1012.0 |
| 20260505173113 | 73 | 60 | 0.0 | 5.2 | 0.00 | 0.00 | 0.00 | 53 | 1012.1 |
| 20260505172611 | 73 | 226 | 3.5 | 5.2 | 0.00 | 0.00 | 0.00 | 54 | 1012.2 |
| 20260505172108 | 73 | 29 | 2.6 | 3.5 | 0.00 | 0.00 | 0.00 | 53 | 1012.1 |
| 20260505171602 | 74 | 295 | 3.5 | 7.0 | 0.00 | 0.00 | 0.00 | 52 | 1012.1 |
| 20260505171100 | 74 | 41 | 0.9 | 6.1 | 0.00 | 0.00 | 0.00 | 52 | 1012.0 |
| 20260505170556 | 75 | 45 | 0.9 | 8.7 | 0.00 | 0.00 | 0.00 | 52 | 1012.0 |
| 20260505170053 | 74 | 79 | 0.0 | 7.8 | 0.00 | 0.00 | 0.00 | 53 | 1012.0 |
| 20260505165543 | 74 | 329 | 1.7 | 6.1 | 0.00 | 0.00 | 0.00 | 54 | 1011.9 |
| 20260505165039 | 74 | 167 | 2.6 | 6.1 | 0.00 | 0.00 | 0.00 | 53 | 1011.8 |
| 20260505164535 | 74 | 261 | 6.1 | 11.3 | 0.00 | 0.00 | 0.00 | 52 | 1011.9 |
| 20260505164033 | 74 | 43 | 1.7 | 7.8 | 0.00 | 0.00 | 0.00 | 52 | 1012.0 |
| 20260505163531 | 74 | 101 | 1.7 | 3.5 | 0.00 | 0.00 | 0.00 | 55 | 1012.0 |
| 20260505163027 | 74 | 74 | 1.7 | 7.8 | 0.00 | 0.00 | 0.00 | 53 | 1011.9 |
| 20260505162521 | 73 | 332 | 0.0 | 3.5 | 0.00 | 0.00 | 0.00 | 55 | 1012.1 |
| 20260505162018 | 73 | 41 | 2.6 | 5.2 | 0.00 | 0.00 | 0.00 | 55 | 1012.1 |
| 20260505161514 | 73 | 81 | 1.7 | 2.6 | 0.00 | 0.00 | 0.00 | 54 | 1012.3 |
| 20260505161012 | 73 | 48 | 0.0 | 3.5 | 0.00 | 0.00 | 0.00 | 55 | 1012.1 |
| 20260505160510 | 72 | 33 | 0.0 | 5.2 | 0.00 | 0.00 | 0.00 | 55 | 1012.2 |
| 20260505152945 | 71 | 0 | 1.7 | 2.6 | 0.00 | 0.00 | 0.00 | 55 | 1011.7 |
| 20260505152443 | 71 | 8 | 0.0 | 0.9 | 0.00 | 0.00 | 0.00 | 56 | 1011.5 |
| 20260505151938 | 71 | 144 | 3.5 | 7.0 | 0.00 | 0.00 | 0.00 | 56 | 1011.6 |
| 20260505151433 | 71 | 354 | 4.3 | 6.1 | 0.00 | 0.00 | 0.00 | 56 | 1011.7 |
| 20260505150931 | 71 | 124 | 1.7 | 5.2 | 0.00 | 0.00 | 0.00 | 57 | 1011.9 |
| 20260505150428 | 71 | 302 | 0.0 | 1.7 | 0.00 | 0.00 | 0.00 | 58 | 1011.8 |
| 20260505140357 | 70 | 10 | 0.0 | 1.7 | 0.00 | 0.00 | 0.00 | 57 | 1011.8 |
| 20260505124811 | 66 | 228 | 0.9 | 2.6 | 0.00 | 0.00 | 0.00 | 64 | 1011.9 |
| 20260505124308 | 66 | 29 | 1.7 | 2.6 | 0.00 | 0.00 | 0.00 | 64 | 1012.0 |
| 20260505123804 | 65 | 146 | 2.6 | 5.2 | 0.00 | 0.00 | 0.00 | 65 | 1012.0 |
| 20260505123300 | 65 | 32 | 0.0 | 3.5 | 0.00 | 0.00 | 0.00 | 66 | 1012.2 |
| 20260505122756 | 64 | 73 | 0.9 | 2.6 | 0.00 | 0.00 | 0.00 | 68 | 1012.0 |
| 20260505122254 | 64 | 28 | 0.0 | 0.9 | 0.00 | 0.00 | 0.00 | 68 | 1012.1 |
| 20260505121750 | 64 | 43 | 0.9 | 2.6 | 0.00 | 0.00 | 0.00 | 68 | 1012.0 |
| 20260505121247 | 64 | 34 | 0.9 | 1.7 | 0.00 | 0.00 | 0.00 | 68 | 1012.1 |
| 20260505120744 | 63 | 350 | 0.9 | 5.2 | 0.00 | 0.00 | 0.00 | 68 | 1011.9 |
| 20260505120240 | 63 | 28 | 0.0 | 5.2 | 0.00 | 0.00 | 0.00 | 68 | 1011.8 |
| 20260505115739 | 63 | 15 | 0.0 | 1.7 | 0.00 | 0.00 | 0.00 | 68 | 1011.9 |
| 20260505115236 | 63 | 8 | 0.9 | 1.7 | 0.00 | 0.00 | 0.00 | 69 | 1011.8 |
| 20260505114734 | 63 | 67 | 1.7 | 1.7 | 0.00 | 0.00 | 0.00 | 68 | 1011.7 |
| 20260505114229 | 64 | 22 | 2.6 | 2.6 | 0.00 | 0.00 | 0.00 | 70 | 1011.7 |
| 20260505113726 | 64 | 357 | 0.0 | 1.7 | 0.00 | 0.00 | 0.00 | 68 | 1011.7 |
| 20260505113223 | 64 | 50 | 0.9 | 2.6 | 0.00 | 0.00 | 0.00 | 68 | 1011.5 |
| 20260505112719 | 64 | 32 | 0.0 | 1.7 | 0.00 | 0.00 | 0.00 | 68 | 1011.3 |
| 20260505112217 | 63 | 14 | 0.9 | 6.1 | 0.00 | 0.00 | 0.00 | 68 | 1011.3 |
| 20260505111712 | 63 | 35 | 0.9 | 1.7 | 0.00 | 0.00 | 0.00 | 68 | 1011.2 |
| 20260505111208 | 63 | 334 | 0.0 | 1.7 | 0.00 | 0.00 | 0.00 | 71 | 1011.1 |
| 20260505110704 | 62 | 17 | 0.0 | 1.7 | 0.00 | 0.00 | 0.00 | 75 | 1011.3 |
| 20260505110202 | 63 | 353 | 0.0 | 0.0 | 0.00 | 0.00 | 0.00 | 74 | 1011.2 |